This demonstration page uses our WeatherBlox Daily Observations layout. Learn more.

Left ArrowRight Arrow

Hourly Observations for December 13, 2019

Temp ( °F °C ) Dew Point ( °F °C ) Humidity (%) Winds ( mph kmh ) Pressure ( in mb ) Visibility ( mi km ) Precip ( " mm )
12:56 am 00:56 Mostly Cloudy 23 -5 19 -7 86 86 ENE 6 9 30.05 1018 9 14 0.00 0.00
1:56 am 01:56 Mostly Cloudy 21 -6 19 -7 93 93 ENE 3 6 30.04 1017 7 11 0.00 0.00
2:56 am 02:56 Mostly Cloudy 21 -6 19 -7 93 93 ENE 3 6 30.02 1017 7 11 0.00 0.00
3:56 am 03:56 Mostly Cloudy with Mist and Fog 21 -6 19 -7 93 93 E 5 7 30.00 1016 6 10 0.00 0.00
4:56 am 04:56 Cloudy with Mist and Fog 21 -6 19 -7 93 93 E 6 9 29.97 1015 6 10 0.00 0.00
5:56 am 05:56 Mostly Cloudy 23 -5 19 -7 86 86 ESE 8 13 29.97 1015 8 13 0.00 0.00
6:56 am 06:56 Mostly Cloudy 23 -5 21 -6 93 93 NW 7 11 29.99 1016 10 16 0.00 0.00
7:56 am 07:56 Mostly Cloudy with Light Freezing Rain 25 -4 21 -6 86 86 NNW 3 6 29.99 1016 3 5 0.00 0.00
8:56 am 08:56 Mostly Cloudy with Light Freezing Rain 25 -4 23 -5 93 93 ESE 6 9 29.96 1015 4 6 0.00 0.00
9:56 am 09:56 Mostly Cloudy 27 -3 23 -5 86 86 SE 9 15 29.94 1014 7 11 0.00 0.00
10:56 am 10:56 undefined N/A N/A N/A SSE 5 7 N/A 10 16 0.00 0.00
11:56 am 11:56 Mostly Sunny 34 1 27 -3 75 75 NNW 3 6 29.91 1013 10 16 0.00 0.00
12:56 pm 12:56 Mostly Sunny 37 3 27 -3 65 65 W 5 7 29.87 1012 10 16 0.00 0.00
1:56 pm 13:56 Mostly Sunny 41 5 28 -2 61 61 W 3 6 29.85 1011 10 16 0.00 0.00
2:56 pm 14:56 undefined N/A N/A N/A Calm N/A 10 16 0.00 0.00
3:56 pm 15:56 Mostly Cloudy with Haze 39 4 30 -1 70 70 ENE 3 6 29.85 1011 6 10 0.00 0.00
4:56 pm 16:56 Cloudy with Haze 36 2 30 -1 81 81 N 8 13 29.88 1012 6 10 0.00 0.00
6:56 pm 18:56 Cloudy with Haze 32 0 27 -3 80 80 NW 7 11 29.91 1013 4 6 0.00 0.00
7:56 pm 19:56 Cloudy with Mist and Fog 30 -1 27 -3 86 86 NNW 3 6 29.93 1014 3 5 0.00 0.00
8:56 pm 20:56 Cloudy with Mist and Fog 32 0 28 -2 87 87 NNW 9 15 29.95 1014 3 5 0.00 0.00
9:07 pm 21:07 Cloudy with Mist and Fog 30 -1 28 -2 93 93 NNW 17 28 29.95 1014 3 5 0.00 0.00
9:56 pm 21:56 Cloudy with Mist and Fog 30 -1 28 -2 93 93 NNW 9 15 29.96 1015 4 6 0.00 0.00
10:56 pm 22:56 Cloudy 32 0 27 -3 80 80 N 15 24 29.97 1015 7 11 0.00 0.00
11:56 pm 23:56 Mostly Cloudy 32 0 27 -3 80 80 N 13 20 29.97 1015 10 16 0.00 0.00

Powered by AerisWeather